• In Slovakia
  • List of Countries
  • For 7 days
  • Water Temperature
  • Satellite Maps
  • Weather Map
  • Weather Widgets
  • user-avatar
    Login

    Hourly Weather Etchmiadzin

    Today, 25 May, Friday

    Time Temperature Precipitation Wind Pressure Humidity
    00:00 +18°C° 0 mm 1 mps 684 mmHg 59%
    01:00 +16°C° 0 mm 1 mps 684 mmHg 59%
    02:00 +16°C° 0 mm 1 mps 684 mmHg 59%
    03:00 +16°C° 0 mm 1 mps 683 mmHg 59%
    04:00 +18°C° 0 mm 1 mps 683 mmHg 59%
    05:00 +18°C° 0 mm 1 mps 684 mmHg 59%
    06:00 +19°C° 0 mm 1 mps 684 mmHg 58%
    07:00 +20°C° 0.1 mm 1 mps 684 mmHg 56%
    08:00 +22°C° 0.1 mm 1 mps 684 mmHg 53%
    09:00 +23°C° 0 mm 1 mps 684 mmHg 49%
    10:00 +24°C° 0.2 mm 2 mps 684 mmHg 48%
    11:00 +24°C° 0.2 mm 2 mps 684 mmHg 47%
    12:00 +25°C° 0.2 mm 2 mps 684 mmHg 45%
    13:00 +26°C° 0.4 mm 2 mps 683 mmHg 45%
    14:00 +26°C° 0.4 mm 2 mps 683 mmHg 44%
    15:00 +26°C° 0.4 mm 2 mps 683 mmHg 44%
    16:00 +26°C° 0.4 mm 2 mps 683 mmHg 47%
    17:00 +25°C° 0.4 mm 2 mps 683 mmHg 49%
    18:00 +24°C° 0.4 mm 2 mps 683 mmHg 52%
    19:00 +23°C° 0.3 mm 1 mps 683 mmHg 55%
    20:00 +22°C° 0.3 mm 1 mps 683 mmHg 58%
    21:00 +21°C° 0.3 mm 1 mps 683 mmHg 61%
    22:00 +20°C° 0.2 mm 1 mps 683 mmHg 62%
    23:00 +20°C° 0.2 mm 1 mps 683 mmHg 63%

    Tomorrow, 26 May, Saturday

    Time Temperature Precipitation Wind Pressure Humidity
    00:00 +20°C° 0.2 mm 1 mps 684 mmHg 64%
    01:00 +19°C° 0.1 mm 1 mps 683 mmHg 64%
    02:00 +19°C° 0.1 mm 1 mps 683 mmHg 65%
    03:00 +18°C° 0.1 mm 1 mps 683 mmHg 66%
    04:00 +19°C° 0 mm 1 mps 683 mmHg 65%
    05:00 +19°C° 0 mm 1 mps 684 mmHg 65%
    06:00 +20°C° 0 mm 1 mps 684 mmHg 64%
    07:00 +22°C° 0.1 mm 1 mps 684 mmHg 59%
    08:00 +23°C° 0.1 mm 1 mps 684 mmHg 55%
    09:00 +25°C° 0.1 mm 2 mps 684 mmHg 50%
    10:00 +26°C° 0.2 mm 2 mps 684 mmHg 47%
    11:00 +27°C° 0.2 mm 2 mps 684 mmHg 44%
    12:00 +28°C° 0.2 mm 2 mps 685 mmHg 42%
    13:00 +28°C° 0.6 mm 3 mps 684 mmHg 41%
    14:00 +29°C° 0.6 mm 3 mps 684 mmHg 40%
    15:00 +29°C° 0.6 mm 3 mps 684 mmHg 39%
    16:00 +28°C° 0.4 mm 3 mps 684 mmHg 42%
    17:00 +27°C° 0.4 mm 2 mps 684 mmHg 46%
    18:00 +27°C° 0.4 mm 2 mps 684 mmHg 49%
    19:00 +25°C° 0.8 mm 2 mps 684 mmHg 53%
    20:00 +23°C° 0.8 mm 2 mps 685 mmHg 57%
    21:00 +21°C° 0.8 mm 2 mps 685 mmHg 62%
    22:00 +21°C° 0.8 mm 1 mps 685 mmHg 63%
    23:00 +21°C° 0.8 mm 1 mps 686 mmHg 64%

    Day after tomorrow, 27 May, Sunday

    Time Temperature Precipitation Wind Pressure Humidity
    00:00 +21°C° 0.8 mm 1 mps 686 mmHg 65%
    01:00 +20°C° 0.4 mm 1 mps 686 mmHg 66%
    02:00 +20°C° 0.4 mm 1 mps 686 mmHg 67%
    03:00 +19°C° 0.4 mm 1 mps 686 mmHg 67%
    04:00 +20°C° 0.1 mm 1 mps 686 mmHg 66%
    05:00 +21°C° 0.1 mm 1 mps 687 mmHg 65%
    06:00 +21°C° 0.1 mm 1 mps 687 mmHg 64%
    07:00 +23°C° 0 mm 1 mps 687 mmHg 58%
    08:00 +24°C° 0 mm 1 mps 688 mmHg 51%
    09:00 +26°C° 0 mm 1 mps 688 mmHg 45%
    10:00 +27°C° 0 mm 2 mps 688 mmHg 42%
    11:00 +28°C° 0 mm 2 mps 688 mmHg 39%
    12:00 +29°C° 0 mm 2 mps 689 mmHg 35%
    13:00 +29°C° 0.1 mm 2 mps 689 mmHg 35%
    14:00 +30°C° 0.1 mm 2 mps 688 mmHg 34%
    15:00 +30°C° 0.1 mm 1 mps 688 mmHg 33%
    16:00 +29°C° 0.2 mm 2 mps 688 mmHg 37%
    17:00 +28°C° 0.2 mm 2 mps 689 mmHg 41%
    18:00 +28°C° 0.2 mm 2 mps 689 mmHg 45%
    19:00 +26°C° 0.4 mm 2 mps 689 mmHg 52%
    20:00 +24°C° 0.4 mm 2 mps 689 mmHg 58%
    21:00 +21°C° 0.4 mm 3 mps 690 mmHg 65%
    22:00 +21°C° 0.2 mm 3 mps 690 mmHg 68%
    23:00 +20°C° 0.2 mm 2 mps 690 mmHg 71%

    28 May, Monday

    Time Temperature Precipitation Wind Pressure Humidity
    00:00 +19°C° 0.2 mm 2 mps 690 mmHg 74%
    01:00 +19°C° 0 mm 2 mps 690 mmHg 75%
    02:00 +19°C° 0 mm 2 mps 690 mmHg 76%
    03:00 +18°C° 0 mm 2 mps 690 mmHg 77%
    04:00 +19°C° 0 mm 2 mps 690 mmHg 75%
    05:00 +20°C° 0 mm 1 mps 690 mmHg 73%
    06:00 +21°C° 0 mm 1 mps 690 mmHg 71%
    07:00 +22°C° 0 mm 1 mps 689 mmHg 63%
    08:00 +24°C° 0 mm 1 mps 689 mmHg 55%
    09:00 +26°C° 0 mm 1 mps 689 mmHg 47%
    10:00 +27°C° 0.1 mm 1 mps 689 mmHg 44%
    11:00 +28°C° 0.1 mm 1 mps 688 mmHg 41%
    12:00 +29°C° 0.1 mm 2 mps 688 mmHg 38%
    13:00 +30°C° 0.1 mm 2 mps 688 mmHg 37%
    14:00 +30°C° 0.1 mm 2 mps 688 mmHg 36%
    15:00 +31°C° 0.1 mm 2 mps 687 mmHg 35%
    16:00 +30°C° 0.2 mm 2 mps 687 mmHg 38%
    17:00 +29°C° 0.2 mm 1 mps 687 mmHg 42%
    18:00 +28°C° 0.2 mm 1 mps 687 mmHg 45%
    19:00 +26°C° 0.5 mm 1 mps 687 mmHg 50%
    20:00 +24°C° 0.5 mm 1 mps 687 mmHg 55%
    21:00 +21°C° 0.5 mm 2 mps 687 mmHg 60%
    22:00 +21°C° 0.4 mm 2 mps 687 mmHg 64%
    23:00 +20°C° 0.4 mm 2 mps 687 mmHg 67%

    29 May, Tuesday

    Time Temperature Precipitation Wind Pressure Humidity
    00:00 +20°C° 0.4 mm 2 mps 687 mmHg 71%
    01:00 +20°C° 0.3 mm 2 mps 687 mmHg 71%
    02:00 +19°C° 0.3 mm 2 mps 687 mmHg 71%
    03:00 +20°C° 0.3 mm 1 mps 687 mmHg 71%
    04:00 +21°C° 0 mm 1 mps 687 mmHg 70%
    05:00 +21°C° 0 mm 1 mps 687 mmHg 70%
    06:00 +22°C° 0 mm 1 mps 687 mmHg 69%
    07:00 +23°C° 0 mm 1 mps 687 mmHg 62%
    08:00 +25°C° 0 mm 1 mps 687 mmHg 55%
    09:00 +26°C° 0 mm 2 mps 687 mmHg 49%
    10:00 +27°C° 0.1 mm 2 mps 687 mmHg 47%
    11:00 +28°C° 0.1 mm 2 mps 687 mmHg 45%
    12:00 +28°C° 0.1 mm 2 mps 687 mmHg 43%
    13:00 +28°C° 0.3 mm 2 mps 686 mmHg 46%
    14:00 +28°C° 0.3 mm 2 mps 686 mmHg 48%
    15:00 +27°C° 0.3 mm 2 mps 686 mmHg 50%
    16:00 +26°C° 1.4 mm 2 mps 686 mmHg 59%
    17:00 +24°C° 1.4 mm 3 mps 686 mmHg 67%
    18:00 +21°C° 1.4 mm 3 mps 685 mmHg 75%
    19:00 +21°C° 1.4 mm 3 mps 686 mmHg 77%
    20:00 +20°C° 1.4 mm 2 mps 686 mmHg 79%
    21:00 +19°C° 1.4 mm 2 mps 686 mmHg 81%
    22:00 +19°C° 0.3 mm 2 mps 687 mmHg 81%
    23:00 +19°C° 0.3 mm 2 mps 687 mmHg 80%

    30 May, Wednesday

    Time Temperature Precipitation Wind Pressure Humidity
    00:00 +19°C° 0.3 mm 2 mps 687 mmHg 80%
    01:00 +18°C° 0.1 mm 2 mps 687 mmHg 81%
    02:00 +18°C° 0.1 mm 2 mps 686 mmHg 81%
    03:00 +18°C° 0.1 mm 2 mps 686 mmHg 81%
    04:00 +18°C° 0 mm 2 mps 687 mmHg 80%
    05:00 +19°C° 0 mm 2 mps 687 mmHg 78%
    06:00 +19°C° 0 mm 2 mps 687 mmHg 76%
    07:00 +20°C° 0 mm 2 mps 687 mmHg 70%
    08:00 +23°C° 0 mm 2 mps 687 mmHg 65%
    09:00 +24°C° 0 mm 2 mps 688 mmHg 59%
    10:00 +25°C° 0 mm 2 mps 687 mmHg 55%
    11:00 +26°C° 0 mm 3 mps 687 mmHg 51%
    12:00 +27°C° 0 mm 3 mps 687 mmHg 47%
    13:00 +28°C° 0.4 mm 3 mps 687 mmHg 46%
    14:00 +28°C° 0.4 mm 2 mps 687 mmHg 45%
    15:00 +29°C° 0.4 mm 2 mps 686 mmHg 44%
    16:00 +28°C° 0.3 mm 2 mps 686 mmHg 47%
    17:00 +27°C° 0.3 mm 3 mps 686 mmHg 50%
    18:00 +27°C° 0.3 mm 3 mps 686 mmHg 53%
    19:00 +25°C° 0.4 mm 3 mps 686 mmHg 59%
    20:00 +24°C° 0.4 mm 3 mps 687 mmHg 65%
    21:00 +21°C° 0.4 mm 3 mps 687 mmHg 70%
    22:00 +21°C° 0.5 mm 2 mps 686 mmHg 71%
    23:00 +20°C° 0.5 mm 2 mps 686 mmHg 72%
    Show more